Regional Weather Roundup
Issued by NWS

Home | Current Version | Previous Version | Graphics & Text | Print | Product List | Glossary On
Versions: 1 2 3 4 5 6 7 8 9 10 11 12 13 14 15 16 17 18 19 20 21 22 23 24 25 26 27 28 29 30 31 32 33 34 35 36 37 38 39 40 41 42 43 44 45 46 47 48 49 50
000
ASUS43 KLOT 172103
RWRIL

ILLINOIS REGIONAL WEATHER ROUNDUP
NATIONAL WEATHER SERVICE CHICAGO/ROMEOVILLE IL
300 PM CST TUE JAN 17 2017

NOTE: "FAIR" INDICATES FEW OR NO CLOUDS BELOW 12,000 FEET WITH NO
SIGNIFICANT WEATHER AND/OR OBSTRUCTIONS TO VISIBILITY.

* THESE STATIONS ARE NOT UNDER NWS QUALITY CONTROL. THEY ALSO MAY NOT
  REPORT WEATHER SUCH AS PRECIPITATION OR FOG.

ILZ001-002-007-009-015-016-024-172200-
NORTHWEST ILLINOIS

CITY           SKY/WX    TMP DP  RH WIND       PRES   REMARKS
MOLINE         CLOUDY    36  34  92 W10       29.96R FOG     WCI  28
STERLING*      CLOUDY    36  35  96 W15       29.93R FOG     WCI  27
SAVANNA*       CLOUDY    36  33  92 W10       29.93R WCI  28
$$

ILZ003-004-008-010-011-017-018-172200-
NORTH CENTRAL ILLINOIS

CITY           SKY/WX    TMP DP  RH WIND       PRES   REMARKS
ROCKFORD       CLOUDY    36  34  92 W9        29.92R FOG     WCI  29
FREEPORT*      CLOUDY    34  33  99 W7        29.92R FOG     WCI  28
ROCHELLE*      CLOUDY    35  34  99 W13       29.92R FOG     WCI  26
$$

ILZ005-006-012>014-019>023-172200-
NORTHEAST ILLINOIS

CITY           SKY/WX    TMP DP  RH WIND       PRES   REMARKS
CHICAGO-OHARE  CLOUDY    38  36  92 W9        29.88R FOG     WCI  31
CHICAGO-MIDWAY CLOUDY    37  35  92 W10       29.90R WCI  30
AURORA         CLOUDY    37  35  92 W10       29.91R FOG     WCI  30
LANSING*       CLOUDY    37  37 100 W9G20     29.91R WCI  31
JOLIET*        CLOUDY    38  37  99 W8        29.93R FOG     WCI  32
WAUKEGAN       CLOUDY    38  35  89 VRB6      29.87R WCI  33
DUPAGE AIRPORT CLOUDY    37  34  89 W12       29.89R FOG     WCI  29
KANKAKEE*      CLOUDY    37  37  97 W12G18    29.94R FOG     WCI  30
WHEELING       CLOUDY    38  35  89 SW7       29.89R WCI  33
MORRIS*        CLOUDY    37  36  97 W12       29.92R FOG     WCI  29
ROMEOVILLE*    CLOUDY    36  36 100 W10       29.91R FOG     WCI  28
NORTHERLY ISL    N/A     39  36  89 W8          N/A  WCI  33
$$

LMZ740>746-172200-
SOUTHERN LAKE MICHIGAN

STATION/POSITION SKY/WX   TEMP    WIND        PRES    VSBY  WAVE
                          AIR SEA DIR/SP/G                  HT/PER
                          (F)     (DEG/KT/KT) (MB)    (MI)  (FT/S)
HARRISON CRIB              40     260/ 15/ 16   N/A
BURNHAM HARBOR             39     240/  6/ 11   N/A
CALUMET HARBOR             38     230/  8/ 13 1011.8R
BURNS HARBOR               37     240/ 10/ 12 1012.9R
$$

ILZ025>027-034>036-040-047-049-050-058-095>099-172200-
WEST-CENTRAL ILLINOIS

CITY           SKY/WX    TMP DP  RH WIND       PRES   REMARKS
QUINCY         CLOUDY    38  35  89 W14       30.02R WCI  30
GALESBURG*     CLOUDY    35  35 100 W15       29.97R FOG     WCI  25
MACOMB*        CLOUDY    36  36 100 W15       30.02R FOG     WCI  26
JACKSONVILLE*  CLOUDY    39  36  90 W13G18    30.02R WCI  31
PITTSFIELD*    CLOUDY    39  36  89 W12G20    30.04R WCI  32
$$

ILZ028>032-037-038-041>044-048-051>054-059>061-172200-
CENTRAL ILLINOIS

CITY           SKY/WX    TMP DP  RH WIND       PRES   REMARKS
PONTIAC        CLOUDY    38  38 100 W14       29.95S WCI  29
BLOOMINGTON    CLOUDY    37  36  96 W12       29.97R FOG     WCI  29
DECATUR        CLOUDY    41  39  93 W15       29.99R
PEORIA         CLOUDY    37  35  92 W13       29.98R FOG     WCI  29
LACON*         CLOUDY    36  35  96 W8        29.96R WCI  30
LINCOLN*       CLOUDY    40  37  90 W5        29.99R
SPRINGFIELD    CLOUDY    41  37  86 W13       30.01R
TAYLORVILLE    CLOUDY    41  38  91 W14G20    30.01R
$$

ILZ033-039-045-046-055>057-062-063-172200-
EAST-CENTRAL ILLINOIS

CITY           SKY/WX    TMP DP  RH WIND       PRES   REMARKS
CHAMPAIGN      CLOUDY    41  38  89 W17       29.97R
RANTOUL*       CLOUDY    41  40  95 W13G20    29.96R
MATTOON        CLOUDY    43  32  65 W9G16     29.98R HAZE
$$

ILZ079-100>102-172200-
SOUTHWEST ILLINOIS

CITY           SKY/WX    TMP DP  RH WIND       PRES   REMARKS
ALTON          CLOUDY    43  37  81 W14       30.04R
BELLEVILLE     PTSUNNY   46  40  81 W16       30.03R
CAHOKIA*       CLOUDY    46  37  71 W9        30.05R
SPARTA*        CLOUDY    44  38  80 W8        30.06R
$$

ILZ064>066-069>071-074>076-080>082-084>086-088>090-092>094-172200-
SOUTH-CENTRAL ILLINOIS

CITY           SKY/WX    TMP DP  RH WIND       PRES   REMARKS
CARBONDALE     CLOUDY    44  40  85 W6        30.06R
CAIRO*         CLOUDY    45  41  86 W9        30.08R
EFFINGHAM*     CLOUDY    46  44  93 SW8       30.02R
MARION         CLOUDY    45  43  93 W9        30.06R
MT. VERNON     CLOUDY    44  39  82 W9        30.04R
CENTRALIA*     CLOUDY    45  41  85 W10       30.03R
SALEM*         CLOUDY    46  40  79 W12       30.03R
METROPOLIS*    CLOUDY    46  41  80 SW10      30.07R
$$

ILZ067-068-072-073-078-083-087-091-172200-
SOUTHEAST ILLINOIS

CITY           SKY/WX    TMP DP  RH WIND       PRES   REMARKS
LAWRENCEVILLE  CLOUDY    47  42  83 W9        30.01R
FLORA*         CLOUDY    47  41  81 W14G20    30.03R
FAIRFIELD*     CLOUDY    45  40  82 W6        30.03R
HARRISBURG*    CLOUDY    45  40  85 W10       30.06R
ROBINSON*      CLOUDY    45  41  87 W10       30.01R
CARMI*         CLOUDY    45  40  85 W9        30.04R
$$

ABBREVIATIONS USED IN REMARKS
   TC - TEMPERATURE IN CELSIUS
  WCI - WIND CHILL INDEX
   HX - HEAT INDEX
  VSB - VISIBILITY
$$




USA.gov is the U.S. government's official web portal to all federal, state and local government web resources and services.